This demonstration page uses our WeatherBlox Daily Observations layout. Learn more.

Left ArrowRight Arrow

Hourly Observations for November 28, 2020

Temp ( °F °C ) Dew Point ( °F °C ) Humidity (%) Winds ( mph kmh ) Pressure ( in mb ) Visibility ( mi km ) Precip ( " mm )
12:56 am 00:56 Clear 34 1.1 21 -6.1 59 59 SW 12 19 30.22 1023 10 16 0.00 0.00
1:56 am 01:56 Clear 34 1.1 22 -5.6 61 61 SW 12 19 30.20 1023 10 16 0.00 0.00
2:56 am 02:56 Clear 33 0.6 22 -5.6 64 64 SW 12 19 30.21 1023 10 16 0.00 0.00
3:56 am 03:56 Clear 31 -0.6 23 -5 72 72 SW 12 19 30.19 1022 10 16 0.00 0.00
4:56 am 04:56 Clear 30 -1.1 22 -5.6 72 72 SW 12 19 30.18 1022 10 16 0.00 0.00
5:56 am 05:56 Clear 29 -1.7 22 -5.6 75 75 SW 12 19 30.18 1022 10 16 0.00 0.00
6:56 am 06:56 Clear 31 -0.6 23 -5 72 72 WSW 10 17 30.18 1022 10 16 0.00 0.00
7:56 am 07:56 Sunny 31 -0.6 23 -5 72 72 WSW 9 15 30.17 1022 10 16 0.00 0.00
8:56 am 08:56 Sunny 33 0.6 23 -5 66 66 WSW 7 11 30.16 1022 10 16 0.00 0.00
9:56 am 09:56 Sunny 37 2.8 24 -4.4 59 59 SW 9 15 30.14 1021 10 16 0.00 0.00
10:56 am 10:56 Sunny 41 5 26 -3.3 55 55 SW 9 15 30.14 1021 10 16 0.00 0.00
11:56 am 11:56 Sunny 47 8.3 26 -3.3 44 44 WSW 13 20 30.11 1020 10 16 0.00 0.00
12:56 pm 12:56 Sunny 50 10 29 -1.7 44 44 SSW 13 20 30.08 1019 10 16 0.00 0.00
1:56 pm 13:56 Sunny 52 11.1 27 -2.8 38 38 SW 14 22 30.05 1018 10 16 0.00 0.00
2:56 pm 14:56 Sunny 55 12.8 26 -3.3 33 33 SW 14 22 30.04 1017 10 16 0.00 0.00
3:56 pm 15:56 Sunny 54 12.2 26 -3.3 34 34 SSW 14 22 30.03 1017 10 16 0.00 0.00
4:56 pm 16:56 Sunny 51 10.6 27 -2.8 39 39 SSW 10 17 30.04 1017 10 16 0.00 0.00
5:56 pm 17:56 Clear 49 9.4 26 -3.3 41 41 SW 13 20 30.02 1017 10 16 0.00 0.00
6:56 pm 18:56 Clear 47 8.3 25 -3.9 42 42 W 8 13 30.02 1017 10 16 0.00 0.00
7:56 pm 19:56 Clear 38 3.3 24 -4.4 57 57 SW 5 7 30.02 1017 10 16 0.00 0.00
8:56 pm 20:56 Clear 34 1.1 23 -5 64 64 SSW 7 11 30.02 1017 10 16 0.00 0.00
9:56 pm 21:56 Clear 39 3.9 25 -3.9 57 57 WSW 8 13 30.01 1016 10 16 0.00 0.00
10:56 pm 22:56 Clear 34 1.1 24 -4.4 67 67 SSW 12 19 30.03 1017 10 16 0.00 0.00
11:56 pm 23:56 Clear 39 3.9 24 -4.4 55 55 W 12 19 30.03 1017 10 16 0.00 0.00

Powered by AerisWeather